Weather Roundup
Issued by NWS Chicago, IL

Home | Current Version | Previous Version | Graphics & Text | Print | Product List | Glossary On
Versions: 1 2 3 4 5 6 7 8 9 10 11 12 13 14 15 16 17 18 19 20 21 22 23 24 25 26 27 28 29 30 31 32 33 34 35 36 37 38 39 40 41 42 43 44 45 46 47 48 49 50
000
NZUS59 KLOT 250103
HRRLOT

CHICAGO AREA WEATHER ROUNDUP
NATIONAL WEATHER SERVICE CHICAGO/ROMEOVILLE IL
700 PM CST FRI FEB 24 2017

NOTE: "FAIR" INDICATES FEW OR NO CLOUDS BELOW 12,000 FEET WITH NO
SIGNIFICANT WEATHER AND/OR OBSTRUCTIONS TO VISIBILITY.

* THESE STATIONS ARE NOT UNDER NWS QUALITY CONTROL. THEY ALSO MAY NOT
  REPORT WEATHER SUCH AS PRECIPITATION OR FOG.

ILZ005-006-012>014-019>023-250200-
NORTHEAST ILLINOIS

CITY           SKY/WX    TMP DP  RH WIND       PRES   REMARKS
OHARE          DRIZZLE   39  36  89 W9        29.53S FOG
MIDWAY         CLOUDY    42  36  79 W14       29.54R HAZE
AURORA         LGT RAIN  38  36  92 W10       29.57R
LANSING*       CLOUDY    43  40  88 W17       29.55R
JOLIET*        CLOUDY    42  39  89 W9        29.57R
WAUKEGAN       CLOUDY    35  33  92 NW8       29.53S FOG     WCI  29
DUPAGE AIRPORT CLOUDY    37  34  89 W9        29.54R FOG
WHEELING       CLOUDY    36  35  96 NW8       29.55S
KANKAKEE*      CLOUDY    43  35  72 W23G32    29.58R
MORRIS*        CLOUDY    40  38  92 W15G22    29.57R
LEWIS AIRPORT* CLOUDY    40  40 100 W15       29.56R
NORTHERLY ISL    N/A     41  38  89 SW8         N/A
$$

WIZ051-052-058>065-066-070>072-250200-
SOUTHEAST WISCONSIN

CITY           SKY/WX    TMP DP  RH WIND       PRES   REMARKS
MILWAUKEE      DRIZZLE   33  30  88 NW10      29.54R FOG     WCI  25
KENOSHA*       CLOUDY    34  32  92 NW7       29.54R FOG     WCI  28
RACINE*        CLOUDY    33  31  92 NW9       29.55R FOG     WCI  25
WEST BEND      MIX PCPN  30  30 100 N3        29.55S
$$

INZ001>003-010>013-019-020-250200-
NORTHWEST INDIANA

CITY           SKY/WX    TMP DP  RH WIND       PRES   REMARKS
GARY*          CLOUDY    45  37  76 W21       29.54S
MICHIGAN CITY* NOT AVBL
RENSSELAER*    NOT AVBL
VALPARAISO     CLOUDY    41  40  96 N5        29.54R FOG
$$

LMZ740>746-250200-
SOUTHERN LAKE MICHIGAN

STATION/POSITION TIME  SKY/WX   TEMP WIND        PRES    VSBY
                                AIR  DIR/SP/G
                 (UTC)          (F)  (DEG/KT/KT) (MB)    (MI)
HARRISON CRIB    0040            39  310/ 12/ 13   N/A
BURNHAM HARBOR   0100            41  260/  7/ 13   N/A
CALUMET HARBOR   0030            43  250/  5/ 14  999.5F
BURNS HARBOR     0040            36  330/  5/ 10 1001.4R
MICHIGAN CITY    0040            36  260/  9/  9   N/A
$$

ABBREVIATIONS USED IN REMARKS
   TC - TEMPERATURE IN CELSIUS
  WCI - WIND CHILL INDEX
   HX - HEAT INDEX
  VSB - VISIBILITY
$$



USA.gov is the U.S. government's official web portal to all federal, state and local government web resources and services.